Location: Malanoce
(44.2500°N, 7.4667°E)
Time: 00:22:21
(UTC+00:00)

Cosmos 1833 Rocket - Visible Passes

Search period start: 16 February 2026 00:00
Search period end: 26 February 2026 00:00
Orbit: 832 x 838 km, 71.0° (Epoch: 15 February)

Date Brightness Start Highest point End Pass type
(mag) Time Alt. Az. Time Alt. Az. Time Alt. Az.
16 Feb 5.1 19:41:47 10° N 19:41:59 10° NNE 19:41:59 10° NNE visible
17 Feb 4.9 19:24:53 10° NNE 19:25:26 11° NNE 19:25:26 11° NNE visible
17 Feb 5.4 21:06:55 10° NNW 21:07:06 11° NNW 21:07:06 11° NNW visible
18 Feb 4.8 19:08:03 10° NNE 19:08:54 11° NNE 19:08:54 11° NNE visible
18 Feb 5.2 20:49:49 10° NNW 20:50:35 14° NNW 20:50:35 14° NNW visible
19 Feb 4.8 18:51:16 10° NNE 18:52:24 11° NNE 18:52:24 11° NNE visible
19 Feb 4.9 20:32:43 10° NNW 20:34:05 17° NNW 20:34:05 17° NNW visible
20 Feb 4.7 18:34:41 10° NNE 18:35:44 10° NE 18:35:56 10° NE visible
20 Feb 4.6 20:15:38 10° NNW 20:17:37 22° N 20:17:37 22° N visible
21 Feb 4.2 19:58:33 10° NNW 20:01:11 26° N 20:01:11 26° N visible
22 Feb 3.8 19:41:28 10° NNW 19:44:49 31° NNE 19:44:49 31° NNE visible
22 Feb 5.4 21:25:40 10° NW 21:26:30 14° NW 21:26:30 14° NW visible
23 Feb 3.5 19:24:24 10° NNW 19:28:30 35° NNE 19:28:30 35° NNE visible
23 Feb 5.0 21:08:28 10° NW 21:10:12 19° NW 21:10:12 19° NW visible
24 Feb 3.3 19:07:19 10° N 19:12:15 35° NE 19:12:15 35° NE visible
24 Feb 4.6 20:51:15 10° NW 20:53:57 25° WNW 20:53:57 25° WNW visible
25 Feb 3.4 18:50:16 10° N 18:55:19 33° NE 18:56:05 32° ENE visible
25 Feb 4.1 20:34:05 10° NW 20:37:46 34° WNW 20:37:46 34° WNW visible
